Date,TemperatureHighF,TemperatureAvgF,TemperatureLowF,DewpointHighF,DewpointAvgF,DewpointLowF,HumidityHigh,HumidityAvg,HumidityLow,PressureMaxIn,PressureMinIn,WindSpeedMaxMPH,WindSpeedAvgMPH,GustSpeedMaxMPH,PrecipitationSumIn
2013-1-1,36.0,31.0,19.0,32.1,22.8,7.2,89,72,56,30.26,30.05,14,7,19,0.11
2013-1-2,24.0,19.4,14.0,16.3,12.7,8.5,92,75,63,30.42,30.25,13,5,19,0.00
2013-1-3,26.0,17.3,8.0,19.1,7.7,0.2,85,66,48,30.48,30.31,13,5,17,0.01
2013-1-4,34.0,28.1,22.0,28.1,23.6,18.0,100,83,75,30.31,30.14,19,8,23,0.10
2013-1-5,40.0,31.5,24.0,27.4,23.2,19.9,92,72,52,30.54,30.20,15,5,22,0.00
2013-1-6,38.0,32.5,25.0,36.2,29.2,18.6,100,88,62,30.50,30.22,16,6,19,0.05
2013-1-7,41.0,31.7,23.0,33.6,26.2,20.2,100,82,52,30.68,30.26,10,4,15,0.00
2013-1-8,43.0,37.5,23.0,39.0,34.1,23.0,100,88,66,30.68,30.58,14,7,19,0.02
2013-1-9,42.0,35.6,25.0,39.4,29.1,16.9,94,77,57,30.67,30.35,13,4,20,0.03
2013-1-10,44.0,38.2,30.0,40.4,26.7,22.6,94,65,44,30.81,30.38,15,6,21,0.02
2013-1-11,41.0,32.7,24.0,36.5,28.4,24.0,100,86,54,30.81,30.41,14,4,16,0.17
2013-1-12,44.0,41.4,39.0,26.6,21.7,16.7,57,46,37,30.42,30.33,13,3,17,0.13
2013-1-13,43.0,40.5,38.0,25.9,20.1,14.1,59,44,33,30.43,30.28,6,1,8,0.00
2013-1-14,54.0,45.0,33.0,48.3,29.0,8.6,94,56,17,30.52,30.19,13,5,15,0.02
2013-1-15,37.0,33.3,30.0,33.0,27.7,17.8,100,80,60,30.59,30.49,12,3,12,0.22
2013-1-16,33.0,30.3,28.0,31.0,15.9,12.2,100,56,43,30.51,30.04,12,3,15,0.58
2013-1-17,41.0,34.5,28.0,35.0,27.3,16.4,100,76,51,30.35,30.14,15,4,16,0.03
2013-1-18,28.0,22.1,16.0,18.9,8.0,0.6,77,55,36,30.78,30.27,18,5,19,0.02
2013-1-19,41.0,36.7,27.0,38.5,32.9,17.2,98,86,66,30.69,30.20,20,12,25,0.98
2013-1-20,48.0,39.6,26.0,39.2,31.1,14.2,98,74,36,30.25,29.86,19,9,24,0.23
2013-1-21,27.0,23.1,17.0,25.5,16.1,9.8,100,75,52,30.40,30.08,10,3,16,0.00
2013-1-22,22.0,16.7,9.0,20.0,6.6,-1.3,100,66,40,30.42,30.06,17,8,24,0.00
2013-1-23,14.0,8.8,5.0,2.4,-0.8,-3.4,84,65,46,30.50,30.39,14,6,24,0.00
2013-1-24,18.0,9.2,1.0,2.2,-2.5,-5.8,89,61,38,30.58,30.39,21,7,28,0.04
2013-1-25,20.0,13.9,7.0,15.3,4.6,-1.9,100,68,39,30.64,30.32,14,5,19,0.00
2013-1-26,22.0,14.6,7.0,14.0,8.2,3.6,100,78,53,30.58,30.29,13,5,19,0.00
2013-1-27,30.0,18.7,8.0,13.3,5.2,0.0,100,60,33,30.76,30.58,11,5,20,0.00
2013-1-28,32.0,25.1,16.0,26.5,14.4,-0.2,100,65,44,30.74,30.24,11,3,15,0.16
2013-1-29,37.0,32.2,28.0,36.0,27.3,19.8,100,83,70,30.45,30.24,10,3,13,0.01
2013-1-30,50.0,44.8,35.0,38.2,28.9,19.6,71,54,32,30.39,29.71,15,7,20,0.09
2013-1-31,53.0,42.4,28.0,42.1,29.1,13.2,86,60,42,29.93,29.25,28,10,34,3.65
2013-2-1,28.0,24.2,17.0,19.5,11.2,5.6,73,58,41,30.42,29.94,18,8,27,0.07
2013-2-2,27.0,21.2,15.0,23.0,15.2,8.9,100,78,61,30.57,30.31,17,8,21,0.08
2013-2-3,31.0,21.7,15.0,23.0,17.8,15.0,100,86,55,30.35,30.01,9,3,12,0.00
2013-2-4,27.0,22.1,17.0,20.0,12.2,6.2,100,69,44,30.24,30.03,19,7,22,0.02
2013-2-5,23.0,21.4,20.0,23.0,19.3,8.6,100,93,58,30.28,30.18,9,3,10,0.00
2013-2-6,37.0,27.5,22.0,33.0,20.3,0.9,100,78,36,30.59,30.18,17,5,19,0.01
2013-2-7,29.0,23.1,16.0,22.5,10.0,1.8,87,58,39,30.79,30.58,14,5,18,0.00
2013-2-8,32.0,27.1,23.0,32.0,19.9,14.3,100,76,56,30.68,29.81,19,9,29,0.09
2013-2-18,26.0,25.3,25.0,15.5,12.1,7.2,64,57,46,30.46,30.43,7,4,18,0.01
2013-2-19,42.0,34.9,23.0,40.0,25.4,9.2,100,73,30,30.47,29.85,12,4,15,0.26
2013-2-20,37.0,28.8,20.0,34.0,18.1,9.2,100,66,31,30.14,29.85,18,9,27,0.11
2013-2-21,30.0,22.8,19.0,16.1,14.6,12.1,86,71,54,30.50,30.11,20,9,28,0.05
2013-2-22,36.0,28.2,18.0,31.2,23.8,15.9,100,84,62,30.66,30.50,11,5,16,0.00
2013-2-23,35.0,33.0,31.0,35.0,29.6,18.1,100,88,56,30.56,30.05,14,8,20,0.19
2013-2-24,38.0,33.3,28.0,38.0,27.3,17.7,100,80,54,30.15,29.91,12,6,22,0.14
2013-2-25,41.0,31.9,25.0,34.2,29.9,25.0,100,93,67,30.50,30.16,9,3,11,0.01
2013-2-26,39.0,33.5,29.0,36.8,32.0,29.0,100,95,76,30.58,30.29,18,6,20,0.07
2013-2-27,40.0,38.3,33.0,33.0,22.3,13.8,100,54,36,30.30,29.77,30,4,38,5.19
2013-2-28,41.0,36.1,32.0,30.7,13.1,6.2,69,39,26,29.88,29.78,0,0,0,0.03
2013-3-1,45.0,37.2,31.0,38.0,27.7,16.8,100,69,47,30.00,29.78,0,0,1,0.00
2013-3-2,36.0,32.9,29.0,32.5,28.1,26.6,100,83,69,30.18,30.00,0,0,0,0.00
2013-3-3,35.0,29.3,25.0,28.7,25.6,22.5,100,87,62,30.40,30.18,0,0,0,0.00
2013-3-4,38.0,29.7,24.0,25.2,22.7,20.7,96,76,54,30.62,30.40,0,0,2,0.10
2013-3-5,45.0,33.9,25.0,36.5,28.8,21.8,100,83,54,30.90,30.62,0,0,0,0.00
2013-3-6,39.0,34.9,31.0,37.0,33.9,29.9,100,96,78,30.89,30.78,0,0,1,0.04
2013-3-7,37.0,32.1,28.0,32.2,28.2,18.8,100,86,68,30.96,30.78,0,0,1,0.02
2013-3-8,36.0,29.9,27.0,34.0,19.5,9.8,100,66,43,31.12,30.92,0,0,0,0.36
2013-3-9,51.0,38.0,28.0,36.8,24.9,16.4,100,65,25,31.40,31.12,0,0,0,0.13
2013-3-10,37.0,32.3,24.0,37.0,30.6,18.0,100,94,58,31.50,31.40,0,0,0,0.00
2013-3-11,44.0,38.0,34.0,43.5,31.5,19.0,99,79,44,31.43,31.23,0,0,0,0.00
2013-3-12,46.0,43.2,39.0,39.5,19.4,-4.7,81,42,15,31.23,30.81,0,0,1,0.55
2013-3-13,47.0,38.8,33.0,35.5,28.9,-20.7,98,72,7,30.96,30.86,0,0,1,0.15
2013-3-14,34.0,28.6,25.0,31.0,19.1,11.3,100,69,45,31.04,30.92,0,0,1,0.09
2013-3-15,37.0,30.0,22.0,31.9,20.4,11.0,86,67,52,31.10,30.86,16,2,21,0.35
2013-3-16,36.0,30.7,26.0,30.8,22.2,11.0,100,74,37,31.07,30.89,18,5,20,0.35
2013-3-17,35.0,28.5,23.0,29.0,14.5,7.2,100,60,34,31.51,31.07,13,6,22,0.00
2013-3-18,31.0,25.6,18.0,30.0,13.9,3.3,100,62,40,32.70,31.35,23,7,26,0.00
2013-3-19,40.0,32.2,27.0,39.5,18.2,7.4,100,59,32,31.35,30.82,24,9,31,0.73
2013-3-20,38.0,31.9,25.0,31.2,23.3,16.1,100,72,47,31.10,30.96,23,8,26,0.02
2013-3-21,36.0,30.2,26.0,32.0,24.9,21.4,100,81,62,31.10,30.90,10,5,16,0.00
2013-3-22,38.0,30.0,21.0,25.9,18.2,12.7,84,62,43,31.20,30.96,17,8,21,0.00
2013-3-23,43.0,34.3,27.0,25.6,21.2,17.3,88,61,38,31.55,31.19,24,8,28,0.00
2013-3-24,45.0,33.8,26.0,35.6,26.3,18.4,100,76,43,31.73,31.55,11,5,18,0.00
2013-3-25,40.0,34.6,30.0,34.3,29.1,16.3,100,82,54,31.65,31.44,17,7,24,0.08
2013-3-26,44.0,36.5,30.0,35.6,28.2,21.0,95,74,46,32.00,31.61,12,4,16,0.00
2013-3-27,51.0,38.9,29.0,34.3,26.1,20.0,82,61,45,32.18,32.02,20,7,26,0.00
2013-3-28,45.0,39.0,33.0,37.3,32.6,27.3,90,78,61,32.43,32.17,10,4,14,0.03
2013-3-29,51.0,42.7,35.0,38.7,33.0,28.4,91,70,48,32.56,32.42,15,6,22,0.00
2013-3-30,51.0,42.3,34.0,35.7,31.3,28.4,88,66,45,32.67,32.52,16,6,24,0.00
2013-3-31,49.0,38.8,25.0,41.3,31.4,-24.8,90,80,5,32.70,32.23,13,4,24,0.20
2013-4-1,50.0,41.4,33.0,47.5,11.2,-52.7,91,45,1,32.40,32.17,15,7,24,0.02
2013-4-2,39.0,32.6,25.0,22.2,18.5,14.1,84,57,46,32.58,32.35,22,8,29,0.01
2013-4-3,42.0,33.9,26.0,23.2,17.5,11.8,69,51,46,32.70,32.46,18,8,26,0.00
2013-4-4,42.0,33.7,25.0,33.8,24.2,13.6,88,69,48,32.70,32.58,19,8,22,0.00
2013-4-5,53.0,41.2,37.0,40.7,32.4,21.5,88,73,47,32.70,32.39,15,7,23,0.00
2013-4-6,44.0,35.9,30.0,33.0,23.1,14.6,88,61,45,32.70,32.55,16,7,22,0.00
2013-4-7,46.0,37.7,25.0,42.7,30.9,11.3,88,77,48,32.70,32.44,17,5,23,0.00
2013-4-8,56.0,46.2,39.0,46.6,28.5,-31.4,89,60,3,32.70,32.64,13,5,15,0.00
2013-5-5,48.0,45.0,43.0,46.9,41.2,32.8,97,87,67,30.53,30.49,9,6,15,0.00
2013-5-6,52.0,45.3,39.0,50.2,42.7,28.0,97,91,55,30.55,30.42,10,5,11,0.00
2013-5-7,57.0,48.1,39.0,53.8,33.2,13.9,91,58,25,30.44,30.36,9,3,12,0.00
2013-5-8,60.0,53.6,50.0,25.0,8.4,-7.2,26,16,7,30.38,30.26,20,8,26,0.27
2013-5-9,58.0,52.4,49.0,1.9,-2.9,-43.5,13,5,1,30.27,30.10,11,4,15,0.25
2013-5-10,58.0,51.0,47.0,26.0,-7.9,-49.0,29,4,1,30.22,30.14,7,2,12,0.00
2013-5-11,61.0,54.4,50.0,14.3,-13.1,-46.5,19,3,1,30.17,29.93,12,5,14,0.41
2013-5-12,63.0,52.8,50.0,45.1,-20.5,-46.5,52,6,1,30.09,29.83,14,4,22,0.03
2013-5-13,52.0,47.1,41.0,38.7,33.3,27.5,72,59,40,30.30,30.09,18,9,29,0.01
2013-5-14,53.0,45.6,37.0,45.2,36.6,29.3,94,72,42,30.32,30.23,19,7,22,0.00
2013-5-15,56.0,45.9,37.0,50.3,7.2,-47.2,81,33,1,30.33,29.93,8,2,15,0.02
2013-5-16,67.0,55.3,45.0,56.8,18.7,-49.6,90,43,1,30.02,29.90,15,5,19,0.01
2013-5-17,66.0,56.6,49.0,52.0,43.9,14.7,93,63,25,30.46,30.02,14,5,21,0.00
2013-5-18,63.0,54.6,43.0,57.4,37.5,-17.6,91,59,5,30.56,30.46,12,4,17,0.00
2013-5-19,55.0,51.5,45.0,45.8,9.6,-34.6,71,26,2,30.60,30.45,10,5,13,0.27
2013-5-20,68.0,58.1,52.0,49.9,2.3,-41.6,58,9,1,30.44,30.15,12,5,16,0.07
2013-5-21,75.0,61.1,54.0,69.8,13.1,-43.5,85,16,1,30.18,30.06,11,3,16,0.00
2013-5-22,65.0,55.4,50.0,55.0,6.4,-42.8,72,9,1,30.20,30.10,9,4,15,0.01
2013-5-23,63.0,58.7,56.0,11.4,-1.6,-28.7,13,1,2,30.15,30.04,13,6,23,0.70
2013-5-24,64.0,55.3,44.0,43.3,3.9,-49.6,62,14,1,30.08,29.88,13,5,22,0.28
2013-5-25,47.0,43.6,41.0,37.4,6.0,-51.5,72,28,1,30.10,30.00,25,8,29,0.16
2013-5-26,58.0,48.9,41.0,45.9,40.0,28.6,94,72,55,30.40,30.07,21,8,28,0.01
2013-5-27,64.0,52.7,42.0,56.7,45.5,16.8,95,78,33,30.44,30.31,16,6,24,0.00
2013-5-28,62.0,52.6,41.0,57.1,26.3,-32.7,92,47,2,30.48,30.40,10,3,12,0.03
2013-5-29,68.0,58.5,53.0,59.0,8.8,-41.6,73,13,1,30.40,30.22,6,2,17,0.13
2013-5-30,79.0,65.8,56.0,71.7,37.8,-42.8,91,48,1,30.34,30.22,12,4,13,0.00
2013-5-31,69.0,63.4,59.0,61.5,32.6,-29.4,77,40,2,30.34,30.22,6,2,12,0.00
2013-6-1,75.0,65.5,57.0,70.5,34.2,-42.2,87,46,1,30.24,30.14,11,4,13,0.00
2013-6-3,66.0,63.1,60.0,0.0,-3.4,-38.6,5,0,1,30.06,30.03,8,4,13,0.20
2013-6-4,68.0,58.1,50.0,56.7,47.3,7.3,85,70,12,30.31,30.05,12,4,19,0.00
2013-6-5,65.0,58.2,48.0,58.4,48.8,19.1,88,72,28,30.44,30.31,8,4,11,0.00
2013-6-6,61.0,55.9,49.0,49.0,10.3,-45.3,67,22,1,30.42,30.30,13,5,17,0.00
2013-6-7,56.0,54.9,53.0,11.8,-6.9,-44.7,17,4,1,30.29,29.91,19,8,24,3.63
2013-6-8,68.0,59.9,52.0,50.8,11.2,-44.7,54,15,1,30.24,29.75,16,6,23,1.31
2013-6-9,72.0,63.3,55.0,64.3,31.7,-42.8,83,40,1,30.40,30.25,13,4,15,0.00
2013-6-10,65.0,58.7,54.0,45.5,10.2,-41.0,51,12,1,30.41,30.14,18,6,23,1.83
2013-6-11,71.0,62.3,56.0,11.7,-0.1,-36.8,10,0,1,30.14,29.78,14,5,21,1.04
2013-6-12,69.0,62.6,56.0,59.6,39.6,-30.7,89,55,2,30.07,29.83,17,6,28,0.01
2013-6-13,58.0,54.2,49.0,49.9,3.5,-47.8,80,13,1,30.06,29.75,19,6,24,0.70
2013-6-14,67.0,56.0,49.0,60.7,25.3,-43.5,87,37,1,30.04,29.76,12,5,20,0.76
2013-6-15,71.0,63.2,55.0,62.0,36.8,-43.5,89,47,1,30.18,30.04,12,5,15,0.00
2013-6-16,71.0,61.5,51.0,65.6,21.2,-44.1,88,28,1,30.21,29.96,10,3,15,0.00
2013-6-17,75.0,64.8,57.0,66.6,22.3,-40.4,82,25,1,30.15,30.03,12,4,19,0.01
2013-6-18,71.0,61.9,56.0,60.7,11.1,-38.6,70,12,1,30.14,30.06,11,3,12,0.33
2013-6-19,73.0,61.8,53.0,65.3,34.9,-33.3,89,47,2,30.39,30.10,9,4,14,0.01
2013-6-20,71.0,60.8,50.0,66.0,43.0,-45.9,90,63,1,30.51,30.38,8,3,10,0.00
2013-6-21,70.0,63.1,55.0,65.6,43.7,-23.2,88,59,5,30.53,30.45,13,6,18,0.00
2013-6-22,72.0,63.5,57.0,66.9,30.9,-42.2,89,43,1,30.49,30.38,10,4,11,0.00
2013-6-23,75.0,65.9,58.0,69.1,26.2,-23.5,83,28,2,30.43,30.28,11,4,14,0.00
2013-6-24,81.0,70.9,64.0,75.3,32.1,-7.2,86,34,4,30.28,30.09,10,5,14,0.00
2013-6-25,80.0,69.7,63.0,74.4,35.4,-38.6,85,37,1,30.19,29.95,9,4,18,0.00
2013-6-26,77.0,69.6,63.0,70.4,27.5,-38.0,82,29,1,30.04,29.96,11,3,16,0.02
2013-6-27,70.0,64.9,62.0,7.1,-2.3,-39.2,9,0,1,30.04,29.88,12,5,18,0.23
2013-6-28,72.0,67.2,63.0,37.2,-9.8,-39.2,29,4,1,29.90,29.72,12,5,19,0.05
2013-6-29,74.0,67.9,64.0,64.8,13.0,-36.2,73,13,1,29.94,29.71,10,4,15,0.01
2013-6-30,71.0,67.0,64.0,38.9,1.9,-35.5,31,2,1,30.16,29.94,10,3,13,0.27
2013-7-1,73.0,67.5,65.0,36.1,0.4,-33.1,26,1,1,30.30,30.16,10,4,15,0.48
2013-7-2,77.0,69.1,67.0,60.6,5.3,-21.6,57,5,2,30.41,30.30,11,4,14,0.01
2013-7-3,76.0,70.3,66.0,56.0,13.9,-33.7,50,11,1,30.45,30.39,13,6,14,0.02
2013-7-4,77.0,71.7,67.0,63.9,18.7,-14.4,64,17,3,30.46,30.36,12,5,16,0.00
2013-7-5,80.0,73.2,69.0,73.7,29.5,-22.2,83,29,2,30.42,30.28,13,5,16,0.00
2013-7-6,83.0,74.0,70.0,77.3,30.7,-34.9,87,31,1,30.32,30.18,10,5,15,0.00
2013-7-7,82.0,74.5,69.0,76.0,35.6,-35.5,85,34,1,30.24,30.12,8,3,13,0.00
2013-7-8,80.0,72.2,68.0,74.4,41.9,-35.5,87,41,1,30.24,30.14,13,6,19,0.00
2013-7-9,72.0,68.7,66.0,31.1,0.3,-37.4,22,7,1,30.31,30.22,10,4,15,0.00
2013-7-10,77.0,70.7,66.0,61.1,21.6,-13.0,58,18,3,30.26,30.00,10,4,13,0.19
2013-7-11,74.0,70.1,66.0,51.6,12.0,-36.2,47,12,1,30.12,30.00,11,3,21,0.56
2013-7-12,76.0,69.4,65.0,71.9,55.0,5.6,88,64,9,30.36,30.11,11,4,15,0.00
2013-7-13,70.0,66.5,63.0,37.0,16.2,-15.1,38,15,3,30.52,30.36,11,4,19,0.18
2013-7-14,81.0,72.2,66.0,76.4,43.6,0.5,88,41,6,30.53,30.40,9,3,11,0.00
2013-7-15,88.0,75.6,67.0,77.9,53.4,8.2,92,53,8,30.42,30.28,9,2,13,0.02
2013-7-16,89.0,79.5,71.0,75.8,69.6,57.4,90,73,52,30.36,30.27,7,3,12,0.00
2013-7-17,81.0,73.7,67.0,76.1,59.9,36.3,88,65,28,30.41,30.27,8,2,10,0.00
2013-7-18,85.0,76.2,70.0,79.3,63.7,42.0,88,67,35,30.27,30.14,9,4,11,0.00
2013-7-19,84.0,75.1,70.0,78.3,58.3,34.1,86,58,24,30.16,29.98,14,5,17,0.00
2013-7-20,77.0,74.2,73.0,69.2,54.0,44.5,77,50,36,29.99,29.94,12,6,17,0.02
2013-8-2,78.0,73.8,71.0,67.6,64.4,60.0,89,73,54,30.10,30.02,11,6,18,0.56
2013-8-3,74.0,70.1,65.0,67.6,63.5,59.8,89,80,69,30.10,30.02,12,5,18,0.02
2013-8-4,78.0,68.0,59.0,62.4,57.5,52.2,92,71,43,30.14,30.00,12,4,18,0.11
2013-8-5,76.0,65.9,56.0,55.0,50.3,44.0,88,60,32,30.27,30.14,11,4,16,0.00
2013-8-6,73.0,66.2,56.0,62.7,55.3,47.4,86,69,46,30.36,30.26,11,4,14,0.00
2013-8-7,73.0,67.2,59.0,64.6,61.0,56.4,98,81,64,30.41,30.32,11,5,13,0.00
2013-8-8,79.0,71.9,68.0,70.5,67.7,64.3,96,87,71,30.33,30.24,10,5,13,0.12
2013-8-10,66.0,66.0,66.0,54.7,54.7,54.7,67,67,67,30.25,30.25,1,1,5,0.00
2013-8-11,76.0,68.0,57.0,64.3,54.4,46.6,85,63,43,30.33,30.22,12,4,13,0.00
2013-8-12,77.0,69.9,64.0,70.4,64.9,56.8,99,85,55,30.26,30.14,5,2,8,0.26
2013-8-13,73.0,67.3,63.0,69.0,65.9,62.4,100,96,79,30.16,29.90,8,2,13,0.20
2013-8-14,73.0,66.3,60.0,67.1,53.9,48.9,98,66,45,30.22,29.92,14,5,20,0.00
2013-8-15,73.0,65.0,54.0,60.5,54.1,47.0,93,69,41,30.36,30.22,11,5,15,0.00
2013-8-16,67.0,62.1,58.0,63.7,59.3,56.9,99,91,77,30.38,30.34,5,1,8,0.00
2013-8-17,80.0,68.8,59.0,64.8,60.8,54.8,97,77,48,30.50,30.42,6,2,8,0.00
2013-8-18,73.0,65.6,60.0,64.9,60.5,57.5,99,84,61,30.50,30.34,10,2,11,0.01
2013-8-19,76.0,68.4,61.0,66.8,61.8,57.1,96,80,60,30.34,30.20,13,4,14,0.00
2013-8-20,79.0,71.2,62.0,66.9,63.5,59.0,98,78,52,30.32,30.22,11,4,16,0.00
2013-8-21,81.0,72.0,63.0,68.2,64.8,59.9,100,80,49,30.38,30.25,11,3,11,0.00
2013-8-22,76.0,70.5,68.0,71.2,69.1,67.4,100,96,84,30.27,30.07,17,3,17,0.29
2013-8-23,83.0,71.3,63.0,69.0,62.6,53.2,100,77,37,30.33,30.05,10,3,13,0.00
2013-8-24,77.0,65.7,58.0,59.4,54.6,50.0,95,69,40,30.58,30.32,11,4,13,0.00
2013-8-25,77.0,66.7,55.0,64.0,59.6,53.9,100,79,52,30.61,30.42,10,3,14,0.00
2013-8-26,75.0,70.2,69.0,69.4,63.5,59.8,99,80,63,30.43,30.12,13,6,17,0.39
2013-8-27,84.0,71.5,67.0,70.8,68.4,66.1,100,91,58,30.12,29.98,9,3,14,1.12
2013-8-28,75.0,69.7,66.0,72.7,68.5,66.0,100,96,83,30.12,30.06,10,3,14,0.00
2013-8-29,77.0,68.8,61.0,68.0,64.4,58.7,100,86,67,30.27,30.12,10,4,12,0.00
2013-8-30,76.0,66.8,58.0,69.2,64.1,57.2,99,92,75,30.26,30.07,11,4,14,0.00
2013-8-31,77.0,72.4,70.0,71.9,70.2,69.1,99,93,81,30.07,30.01,12,6,16,0.00
2013-9-1,79.0,73.6,71.0,73.2,71.5,70.2,100,93,79,30.08,30.02,9,4,12,0.00
2013-9-2,75.0,71.9,71.0,73.8,71.6,70.2,100,99,91,30.05,29.90,7,3,10,0.46
2013-9-3,72.0,70.4,68.0,72.0,70.2,67.1,100,99,94,30.00,29.90,10,2,13,0.38
2013-9-6,58.0,56.4,54.0,49.5,48.7,48.1,81,75,70,30.38,30.37,5,4,19,0.00
2013-9-7,73.0,62.7,49.0,61.7,52.1,45.2,93,70,37,30.37,30.11,16,5,19,0.00
2013-9-8,77.0,68.9,56.0,64.0,55.1,40.5,87,63,35,30.31,29.98,14,5,18,0.00
2013-9-9,68.0,60.1,49.0,56.5,45.1,39.0,78,59,37,30.49,30.32,10,4,12,0.00
2013-9-10,72.0,68.5,65.0,69.1,64.6,56.5,97,87,74,30.40,30.24,14,6,21,0.02
2013-9-11,86.0,74.6,69.0,73.3,70.4,68.1,100,87,66,30.32,30.20,10,4,13,0.00
2013-9-12,78.0,71.8,68.0,71.7,69.7,67.7,100,93,80,30.20,29.91,11,4,19,0.48
2013-9-13,76.0,69.0,60.0,70.0,64.2,54.0,100,86,61,30.00,29.80,13,3,17,0.06
2013-9-14,68.0,59.2,52.0,55.5,51.5,48.0,96,77,54,30.32,30.01,12,4,14,0.00
2013-9-15,67.0,58.3,49.0,58.1,49.4,45.0,92,74,50,30.43,30.30,12,5,15,0.00
2013-9-16,71.0,61.3,52.0,58.1,54.2,44.3,90,78,53,30.48,30.24,9,3,16,0.00
2013-9-17,65.0,52.5,42.0,43.3,37.7,34.1,86,59,35,30.68,30.48,10,4,16,0.00
2013-9-18,67.0,57.7,45.0,54.2,44.5,38.7,87,63,39,30.60,30.40,8,4,12,0.00
2013-9-19,71.0,61.9,54.0,60.5,54.0,47.4,95,77,43,30.42,30.28,10,5,14,0.00
2013-9-20,72.0,63.4,53.0,63.2,58.9,52.7,100,86,64,30.33,30.23,8,3,10,0.00
2013-9-21,72.0,66.0,57.0,67.8,63.2,56.7,100,91,78,30.26,29.93,13,6,16,0.00
2013-9-22,70.0,64.1,52.0,67.0,56.5,42.2,100,78,50,30.10,29.85,17,6,21,0.33
2013-9-23,64.0,53.4,45.0,47.3,43.5,40.1,92,71,47,30.27,30.10,12,4,17,0.00
2013-9-24,70.0,54.0,42.0,50.8,43.0,39.8,95,69,37,30.29,30.04,11,4,17,0.00
2013-9-25,69.0,58.6,47.0,57.7,48.9,42.3,92,72,45,30.18,30.08,12,4,16,0.00
2013-9-26,68.0,59.3,50.0,53.5,50.2,47.2,96,73,49,30.36,30.18,13,3,15,0.00
2013-9-27,66.0,58.4,50.0,54.5,51.6,49.2,97,79,59,30.51,30.35,6,3,10,0.00
2013-9-28,73.0,60.6,50.0,58.1,53.2,49.5,99,79,48,30.54,30.46,7,3,11,0.00
2013-9-29,64.0,56.8,49.0,58.3,52.6,48.7,100,87,64,30.49,30.33,9,4,12,0.00
2013-9-30,68.0,58.6,51.0,54.9,52.4,49.4,99,81,53,30.34,30.19,8,3,9,0.00
2013-10-1,74.0,62.9,51.0,61.7,55.4,50.5,100,79,45,30.22,30.07,11,4,14,0.00
2013-10-2,75.0,65.6,57.0,65.0,59.5,54.4,95,81,62,30.20,30.06,10,3,14,0.00
2013-10-3,77.0,64.8,55.0,61.0,54.0,39.7,93,70,28,30.32,30.20,10,4,11,0.00
2013-10-4,76.0,63.3,56.0,65.6,59.7,55.0,100,89,67,30.31,30.18,10,2,14,0.00
2013-10-5,72.0,61.9,58.0,61.3,58.8,57.2,99,90,66,30.32,30.26,6,3,8,0.00
2013-10-7,73.0,71.6,70.0,67.9,67.2,66.5,90,86,80,30.12,30.06,15,9,20,0.01
2013-10-8,69.0,58.5,51.0,49.9,43.4,38.6,93,59,34,30.59,30.28,7,4,13,0.00
2013-10-9,64.0,54.6,47.0,47.0,43.6,38.9,85,67,50,30.67,30.57,11,5,17,0.00
2013-10-10,65.0,56.7,49.0,56.2,51.0,45.6,89,81,70,30.58,30.34,10,4,17,0.00
2013-10-11,68.0,61.6,56.0,58.3,54.4,40.1,93,78,53,30.35,30.26,10,4,17,0.00
2013-10-12,70.0,59.4,54.0,59.0,49.6,39.1,86,71,46,30.58,30.34,16,6,22,0.00
2013-10-13,60.0,54.6,47.0,50.9,48.2,43.9,95,80,66,30.66,30.55,10,4,13,0.00
2013-10-14,61.0,51.3,42.0,49.0,45.6,40.9,96,82,61,30.65,30.51,7,4,10,0.00
2013-10-15,65.0,55.0,45.0,53.5,47.6,39.6,100,79,42,30.53,30.38,12,4,14,0.00
2013-10-16,69.0,57.6,50.0,57.4,53.0,48.2,97,85,62,30.40,30.15,9,3,10,0.00
2013-10-17,68.0,62.0,57.0,62.3,60.3,55.6,99,94,78,30.15,29.96,12,5,14,0.00
2013-10-18,64.0,62.4,59.0,63.4,58.8,51.2,98,88,70,30.02,29.85,13,7,21,0.01
2013-10-19,60.0,60.0,60.0,55.2,54.8,54.5,84,83,82,29.99,29.97,7,6,14,0.00
2013-10-20,63.0,56.4,48.0,58.6,41.3,30.2,95,61,29,30.29,29.92,15,6,18,0.01
2013-10-21,64.0,55.1,43.0,51.1,42.0,35.2,77,62,44,30.39,30.23,12,5,17,0.00
2013-10-22,66.0,59.4,48.0,54.8,50.6,42.8,85,73,51,30.22,29.93,12,6,15,0.00
2013-10-23,50.0,45.2,39.0,42.8,37.4,32.6,87,74,53,30.06,29.85,10,3,10,0.00
2013-10-24,45.0,41.2,39.0,36.6,34.4,27.5,85,77,52,30.19,29.95,9,6,22,0.00
2013-10-25,51.0,43.0,36.0,31.4,27.6,24.1,75,56,36,30.47,30.19,17,6,22,0.00
2013-10-26,55.0,47.2,35.0,43.7,34.8,29.1,86,63,42,30.46,30.13,24,10,30,0.11
2013-10-27,58.0,50.4,41.0,38.7,32.3,25.7,74,51,33,30.36,30.08,18,6,27,0.01
2013-10-28,58.0,47.0,34.0,41.0,33.8,27.8,86,61,44,30.58,30.36,15,5,23,0.00
2013-10-29,55.0,44.9,39.0,35.4,25.8,22.0,61,48,31,30.70,30.59,10,4,15,0.00
2013-10-30,57.0,48.0,38.0,48.8,38.9,25.6,92,71,56,30.62,30.43,11,3,15,0.00
2013-10-31,63.0,55.2,43.0,60.6,52.9,41.9,97,92,83,30.50,30.05,14,5,20,0.07
2013-11-1,65.0,62.1,60.0,62.0,59.1,56.1,98,90,79,30.05,29.75,22,10,30,0.18
2013-11-2,63.0,57.1,51.0,56.8,48.5,41.9,92,73,55,29.97,29.82,9,3,15,0.00
2013-11-3,53.0,44.9,33.0,45.3,31.7,16.9,85,61,39,30.70,29.97,12,5,15,0.00
2013-11-4,49.0,36.6,30.0,24.9,16.0,10.8,71,45,25,30.96,30.66,12,5,16,0.00
2013-11-5,48.0,37.5,33.0,36.4,28.2,24.6,77,69,59,30.97,30.92,10,5,14,0.00
2013-11-7,58.0,46.2,41.0,57.7,41.3,34.0,99,83,72,30.13,29.95,11,5,27,0.33
2013-11-8,50.0,42.4,37.0,35.2,29.0,22.7,89,61,39,30.42,30.13,19,6,24,0.00
2013-11-11,51.0,50.7,50.0,36.8,36.6,36.2,59,58,58,30.25,30.24,13,12,26,0.00
2013-11-13,37.0,30.1,24.0,17.6,13.1,8.1,73,51,30,30.60,30.48,10,6,10,0.00
2013-11-14,50.0,43.3,32.0,32.6,25.6,18.5,65,50,41,30.50,30.34,11,8,11,0.01
2013-11-15,54.0,49.0,43.0,44.4,37.1,28.8,83,64,48,30.49,30.40,9,6,9,0.00
2013-11-16,54.0,50.0,46.0,46.6,42.1,36.8,79,74,70,30.52,30.48,7,6,7,0.00
2013-11-17,57.0,54.4,49.0,57.0,53.9,48.2,100,98,93,30.49,30.11,7,5,7,0.15
2013-11-18,60.0,58.0,56.0,58.0,47.0,33.5,100,70,41,29.95,29.81,11,8,11,0.33
2013-11-19,49.0,45.1,42.0,25.8,24.4,22.7,47,44,40,30.20,29.94,13,10,26,0.00
2013-12-11,32.0,29.3,28.0,21.0,18.7,16.3,69,64,59,30.46,30.44,12,7,22,0.01
2013-12-12,27.0,21.4,17.0,18.0,10.0,2.7,91,63,39,30.61,30.40,16,6,19,0.00
2013-12-13,33.0,25.6,19.0,17.6,11.9,4.8,76,56,42,30.62,30.34,17,7,25,0.00
2013-12-14,36.0,19.9,15.0,35.8,16.1,8.2,100,86,55,30.86,30.22,21,7,37,0.12
2013-12-15,37.0,33.0,29.0,37.0,30.8,21.3,100,92,66,30.20,29.64,23,7,29,0.92
2013-12-16,32.0,26.7,18.0,24.0,13.3,7.1,73,57,40,30.50,30.03,15,7,19,0.00
2013-12-17,23.0,18.4,13.0,23.0,16.1,9.4,100,91,70,30.54,30.18,14,6,19,0.00
2013-12-18,35.0,26.8,17.0,23.3,19.8,17.0,100,77,54,30.39,30.14,15,6,22,0.00
2013-12-19,44.0,36.6,27.0,35.0,27.6,19.5,82,70,51,30.42,30.23,17,6,30,0.00
2013-12-20,39.0,37.6,36.0,33.5,31.0,29.5,87,77,71,30.37,30.36,3,0,4,0.00
2013-12-21,52.0,48.5,45.0,50.9,46.7,44.7,100,94,85,30.25,30.14,13,7,19,0.00
2013-12-22,60.0,53.8,50.0,55.2,52.5,49.2,100,96,78,30.21,30.06,17,7,25,0.01
2013-12-23,55.0,45.8,39.0,53.7,44.2,33.0,100,94,79,30.34,30.15,12,6,20,0.79
2013-12-24,39.0,34.0,27.0,32.4,20.9,10.9,80,59,39,30.54,30.29,14,6,19,0.00
2013-12-25,29.0,22.0,16.0,22.4,6.9,1.5,76,53,34,30.81,30.54,15,5,21,0.00
2013-12-26,37.0,29.9,23.0,30.4,23.5,16.0,88,77,65,30.72,30.36,12,5,20,0.00
2013-12-27,38.0,30.7,24.0,24.8,21.9,17.2,94,71,44,30.60,30.48,17,5,19,0.00
2013-12-28,49.0,40.8,31.0,38.8,31.4,22.7,89,71,40,30.52,30.27,19,7,23,0.00
2013-12-29,46.0,41.9,39.0,46.0,39.1,34.3,100,90,73,30.30,29.56,21,6,28,1.30
2013-12-30,43.0,35.1,21.0,39.1,28.0,8.0,100,77,48,30.44,29.83,13,6,20,0.00
2013-12-31,28.0,24.2,16.0,20.2,14.0,3.4,75,65,44,30.50,30.33,12,6,18,0.00
2014-1-1,30.0,24.8,19.0,16.9,11.2,7.2,68,56,39,30.69,30.50,17,5,18,0.00
2014-1-2,26.0,20.7,8.0,22.8,18.8,8.0,100,92,68,30.58,29.97,18,8,27,0.00